This demonstration page uses our WeatherBlox Daily Observations layout. Learn more.

Left ArrowRight Arrow

44.89941, -97.11507

Hourly Observations for July 2, 2021

Temp ( °F °C ) Dew Point ( °F °C ) Humidity (%) Winds ( mph kmh ) Pressure ( in mb ) Visibility ( mi km ) Precip ( " mm )
12:53 am 00:53 Mostly Cloudy 70 21.1 63 17.2 79 79 Calm 30.09 1019 10 16 0.00 0.00
1:53 am 01:53 Mostly Cloudy 70 21.1 63 17.2 79 79 Calm 30.09 1019 10 16 0.00 0.00
2:53 am 02:53 Mostly Cloudy 68 20 61 16.1 78 78 ESE 3 6 30.09 1019 10 16 0.00 0.00
3:53 am 03:53 Cloudy 68 20 62 16.7 81 81 Calm 30.09 1019 10 16 0.00 0.00
4:53 am 04:53 Mostly Clear 66 18.9 61 16.1 84 84 Calm 30.09 1019 10 16 0.00 0.00
5:53 am 05:53 Sunny 63 17.2 60 15.6 90 90 Calm 30.10 1019 10 16 0.00 0.00
6:53 am 06:53 Sunny 66 18.9 62 16.7 87 87 Calm 30.10 1019 10 16 0.00 0.00
7:53 am 07:53 Sunny 73 22.8 62 16.7 69 69 SW 3 6 30.11 1020 10 16 0.00 0.00
8:53 am 08:53 Sunny 77 25 61 16.1 58 58 W 5 7 30.11 1020 10 16 0.00 0.00
9:53 am 09:53 Sunny 81 27.2 62 16.7 53 53 W 7 11 30.11 1020 10 16 0.00 0.00
10:53 am 10:53 Sunny 83 28.3 60 15.6 46 46 NW 5 7 30.11 1020 10 16 0.00 0.00
11:53 am 11:53 Sunny 84 28.9 60 15.6 44 44 Calm 30.10 1019 10 16 0.00 0.00
12:53 pm 12:53 Mostly Cloudy 84 28.9 59 15 43 43 Calm 30.09 1019 10 16 0.00 0.00
1:53 pm 13:53 Mostly Sunny 86 30 57 13.9 37 37 SSW 3 6 30.08 1019 10 16 0.00 0.00
2:53 pm 14:53 Sunny 87 30.6 58 14.4 37 37 SSE 6 9 30.05 1018 10 16 0.00 0.00
3:53 pm 15:53 Mostly Cloudy 89 31.7 59 15 36 36 undefined N/A 30.04 1017 10 16 0.00 0.00
4:53 pm 16:53 Mostly Sunny 89 31.7 59 15 36 36 S 12 19 30.03 1017 10 16 0.00 0.00
5:53 pm 17:53 Sunny 87 30.6 59 15 39 39 S 8 13 30.03 1017 10 16 0.00 0.00
6:53 pm 18:53 Sunny 86 30 59 15 40 40 S 10 17 30.01 1016 10 16 0.00 0.00
7:53 pm 19:53 Sunny 85 29.4 59 15 42 42 SSE 9 15 30.00 1016 10 16 0.00 0.00
8:53 pm 20:53 Sunny 81 27.2 62 16.7 53 53 ESE 6 9 30.00 1016 10 16 0.00 0.00
9:53 pm 21:53 Clear 77 25 63 17.2 62 62 ESE 7 11 30.00 1016 10 16 0.00 0.00
10:53 pm 22:53 Clear 75 23.9 63 17.2 66 66 ESE 7 11 30.01 1016 10 16 0.00 0.00
11:53 pm 23:53 Clear 73 22.8 60 15.6 64 64 SSE 12 19 30.03 1017 10 16 0.00 0.00

Powered by AerisWeather